Time,TemperatureF,DewpointF,PressureIn,WindDirection,WindDirectionDegrees,WindSpeedMPH,WindSpeedGustMPH,Humidity,HourlyPrecipIn,Conditions,Clouds,dailyrainin,SoftwareType,DateUTC
2013-12-07 00:01:00,37.4,36.1,30.17,NNE,17,8.1,8.9,95,0.07,,,0.00,meteobridge,2013-12-07 05:01:00,
2013-12-07 00:02:00,37.2,36.0,30.17,NNE,19,4.9,10.1,95,0.07,,,0.00,meteobridge,2013-12-07 05:02:00,
2013-12-07 00:07:00,37.2,36.0,30.16,North,355,4.0,11.0,95,0.08,,,0.01,meteobridge,2013-12-07 05:07:00,
2013-12-07 00:12:00,37.2,36.0,30.18,NE,41,2.9,11.0,95,0.08,,,0.01,meteobridge,2013-12-07 05:12:00,
2013-12-07 00:17:00,37.2,36.0,30.18,ENE,64,2.9,6.9,95,0.08,,,0.01,meteobridge,2013-12-07 05:17:00,
2013-12-07 00:22:00,37.0,35.4,30.17,NNE,27,12.1,12.1,94,0.07,,,0.01,meteobridge,2013-12-07 05:22:00,
2013-12-07 00:27:00,37.0,35.4,30.17,NE,55,2.9,8.9,94,0.06,,,0.01,meteobridge,2013-12-07 05:27:00,
2013-12-07 00:32:00,37.0,35.4,30.18,NNE,21,4.9,8.1,94,0.05,,,0.01,meteobridge,2013-12-07 05:32:00,
2013-12-07 00:37:00,37.0,35.4,30.16,NE,47,6.9,8.1,94,0.05,,,0.01,meteobridge,2013-12-07 05:37:00,
2013-12-07 00:42:00,37.0,35.4,30.16,NE,42,6.0,8.9,94,0.05,,,0.02,meteobridge,2013-12-07 05:42:00,
2013-12-07 00:47:00,37.0,35.4,30.16,NNE,30,6.9,10.1,94,0.03,,,0.02,meteobridge,2013-12-07 05:47:00,
2013-12-07 00:52:00,37.0,35.4,30.15,North,9,4.0,8.1,94,0.04,,,0.03,meteobridge,2013-12-07 05:52:00,
2013-12-07 00:57:00,37.0,35.4,30.15,ENE,67,6.9,8.9,94,0.03,,,0.03,meteobridge,2013-12-07 05:57:00,
2013-12-07 01:02:00,37.0,35.4,30.14,ENE,58,2.9,11.0,94,0.04,,,0.04,meteobridge,2013-12-07 06:02:00,
2013-12-07 01:07:00,37.0,35.4,30.16,NNE,22,4.0,8.1,94,0.03,,,0.04,meteobridge,2013-12-07 06:07:00,
2013-12-07 01:12:00,37.2,35.6,30.16,NE,42,4.0,8.1,94,0.04,,,0.05,meteobridge,2013-12-07 06:12:00,
2013-12-07 01:17:00,37.2,35.6,30.16,NNE,30,2.0,8.1,94,0.06,,,0.07,meteobridge,2013-12-07 06:17:00,
2013-12-07 01:22:00,37.2,36.0,30.15,NNE,24,0.0,6.9,95,0.07,,,0.08,meteobridge,2013-12-07 06:22:00,
2013-12-07 01:27:00,37.2,36.0,30.14,NNE,15,6.0,8.1,95,0.08,,,0.09,meteobridge,2013-12-07 06:27:00,
2013-12-07 01:32:00,37.2,36.0,30.13,NE,40,4.0,8.1,95,0.10,,,0.11,meteobridge,2013-12-07 06:32:00,
2013-12-07 01:37:00,37.2,36.0,30.14,NNE,33,2.9,6.9,95,0.10,,,0.11,meteobridge,2013-12-07 06:37:00,
2013-12-07 01:42:00,37.2,36.0,30.16,NNE,30,8.9,13.0,95,0.10,,,0.12,meteobridge,2013-12-07 06:42:00,
2013-12-07 01:47:00,37.2,35.6,30.16,NNE,16,2.9,13.0,94,0.10,,,0.12,meteobridge,2013-12-07 06:47:00,
2013-12-07 01:52:00,37.0,35.4,30.17,North,0,6.0,10.1,94,0.09,,,0.12,meteobridge,2013-12-07 06:52:00,
2013-12-07 01:57:00,37.0,35.4,30.16,NE,52,2.0,6.0,94,0.09,,,0.12,meteobridge,2013-12-07 06:57:00,
2013-12-07 02:02:00,37.0,35.4,30.16,NNE,21,2.9,8.1,94,0.08,,,0.12,meteobridge,2013-12-07 07:02:00,
2013-12-07 02:07:00,37.0,35.4,30.16,North,9,4.0,8.9,94,0.08,,,0.12,meteobridge,2013-12-07 07:07:00,
2013-12-07 02:13:00,37.0,35.4,30.18,NW,307,4.9,6.0,94,0.07,,,0.12,meteobridge,2013-12-07 07:13:00,
2013-12-07 02:18:00,37.0,35.4,30.20,North,0,4.9,8.1,94,0.05,,,0.12,meteobridge,2013-12-07 07:18:00,
2013-12-07 02:23:00,37.0,35.2,30.19,NNE,21,4.9,6.9,93,0.04,,,0.12,meteobridge,2013-12-07 07:23:00,
2013-12-07 02:28:00,36.9,35.1,30.20,North,0,4.9,14.1,93,0.03,,,0.13,meteobridge,2013-12-07 07:28:00,
2013-12-07 02:33:00,36.9,35.1,30.21,NNE,25,4.0,8.9,93,0.03,,,0.14,meteobridge,2013-12-07 07:33:00,
2013-12-07 02:38:00,36.9,35.1,30.21,North,5,11.0,13.0,93,0.03,,,0.15,meteobridge,2013-12-07 07:38:00,
2013-12-07 02:43:00,36.9,35.1,30.21,NNE,30,4.0,10.1,93,0.03,,,0.15,meteobridge,2013-12-07 07:43:00,
2013-12-07 02:48:00,36.9,35.1,30.23,North,350,4.9,11.0,93,0.03,,,0.15,meteobridge,2013-12-07 07:48:00,
2013-12-07 02:53:00,36.9,35.1,30.23,NNE,28,2.0,8.1,93,0.03,,,0.15,meteobridge,2013-12-07 07:53:00,
2013-12-07 02:58:00,36.9,35.2,30.21,NE,50,6.9,8.9,94,0.04,,,0.16,meteobridge,2013-12-07 07:58:00,
2013-12-07 03:03:00,36.9,35.2,30.20,NNW,335,6.0,8.9,94,0.04,,,0.16,meteobridge,2013-12-07 08:03:00,
2013-12-07 03:08:00,36.9,35.2,30.20,North,355,2.9,10.1,94,0.04,,,0.16,meteobridge,2013-12-07 08:08:00,
2013-12-07 03:13:00,36.9,35.2,30.21,North,355,4.9,16.1,94,0.05,,,0.17,meteobridge,2013-12-07 08:13:00,
2013-12-07 03:18:00,36.7,35.1,30.22,NNW,346,6.0,17.9,94,0.05,,,0.17,meteobridge,2013-12-07 08:18:00,
2013-12-07 03:23:00,36.5,34.9,30.22,NNE,15,6.0,11.0,94,0.04,,,0.17,meteobridge,2013-12-07 08:23:00,
2013-12-07 03:28:00,36.3,34.7,30.22,NNE,19,6.9,6.9,94,0.04,,,0.17,meteobridge,2013-12-07 08:28:00,
2013-12-07 03:33:00,36.3,34.7,30.22,NNE,19,4.0,10.1,94,0.03,,,0.17,meteobridge,2013-12-07 08:33:00,
2013-12-07 03:38:00,36.3,34.7,30.22,NNE,26,10.1,12.1,94,0.02,,,0.17,meteobridge,2013-12-07 08:38:00,
2013-12-07 03:43:00,36.3,34.7,30.21,NE,38,4.9,14.1,94,0.02,,,0.17,meteobridge,2013-12-07 08:43:00,
2013-12-07 03:48:00,36.5,34.9,30.21,NNE,22,6.9,13.0,94,0.02,,,0.17,meteobridge,2013-12-07 08:48:00,
2013-12-07 03:53:00,36.5,34.9,30.22,NNE,17,2.9,12.1,94,0.02,,,0.17,meteobridge,2013-12-07 08:53:00,
2013-12-07 03:58:00,36.5,34.9,30.22,NNW,333,4.9,8.1,94,0.01,,,0.17,meteobridge,2013-12-07 08:58:00,
2013-12-07 04:03:00,36.7,35.1,30.22,NNE,22,8.1,12.1,94,0.01,,,0.17,meteobridge,2013-12-07 09:03:00,
2013-12-07 04:08:00,36.7,35.1,30.22,NNE,13,4.0,8.9,94,0.01,,,0.17,meteobridge,2013-12-07 09:08:00,
2013-12-07 04:13:00,36.7,35.1,30.24,NW,325,4.9,8.1,94,0.00,,,0.17,meteobridge,2013-12-07 09:13:00,
2013-12-07 04:18:00,36.7,35.1,30.24,NNW,340,2.9,10.1,94,0.00,,,0.17,meteobridge,2013-12-07 09:18:00,
2013-12-07 04:24:00,36.7,35.1,30.24,NNE,30,4.0,8.9,94,0.00,,,0.17,meteobridge,2013-12-07 09:24:00,
2013-12-07 04:29:00,36.7,35.1,30.23,North,5,6.0,6.9,94,0.00,,,0.17,meteobridge,2013-12-07 09:29:00,
2013-12-07 04:34:00,36.7,35.1,30.23,NNE,15,4.0,8.1,94,0.00,,,0.17,meteobridge,2013-12-07 09:34:00,
2013-12-07 04:39:00,36.9,35.2,30.23,North,350,4.0,10.1,94,0.00,,,0.17,meteobridge,2013-12-07 09:39:00,
2013-12-07 04:44:00,36.9,35.2,30.23,North,355,4.9,6.9,94,0.00,,,0.17,meteobridge,2013-12-07 09:44:00,
2013-12-07 04:49:00,36.9,35.2,30.23,NNE,15,0.9,8.1,94,0.00,,,0.17,meteobridge,2013-12-07 09:49:00,
2013-12-07 04:54:00,36.9,35.2,30.23,NNE,23,2.0,6.9,94,0.00,,,0.17,meteobridge,2013-12-07 09:54:00,
2013-12-07 04:59:00,36.9,35.2,30.24,NNW,346,4.9,6.0,94,0.00,,,0.17,meteobridge,2013-12-07 09:59:00,
2013-12-07 05:04:00,36.9,35.2,30.24,North,11,4.0,4.9,94,0.00,,,0.17,meteobridge,2013-12-07 10:04:00,
2013-12-07 05:09:00,36.9,35.2,30.24,North,0,6.0,6.9,94,0.00,,,0.17,meteobridge,2013-12-07 10:09:00,
2013-12-07 05:14:00,36.9,35.1,30.24,NNW,343,8.1,8.1,93,0.00,,,0.17,meteobridge,2013-12-07 10:14:00,
2013-12-07 05:19:00,36.9,35.1,30.24,North,9,2.0,6.0,93,0.00,,,0.17,meteobridge,2013-12-07 10:19:00,
2013-12-07 05:24:00,36.9,35.1,30.24,North,355,2.0,4.0,93,0.00,,,0.17,meteobridge,2013-12-07 10:24:00,
2013-12-07 05:29:00,36.9,35.1,30.24,North,5,2.0,6.9,93,0.00,,,0.17,meteobridge,2013-12-07 10:29:00,
2013-12-07 05:35:00,36.9,35.1,30.25,NNW,329,2.0,2.9,93,0.00,,,0.17,meteobridge,2013-12-07 10:35:00,
2013-12-07 05:40:00,36.9,35.1,30.25,North,355,0.0,4.9,93,0.00,,,0.17,meteobridge,2013-12-07 10:40:00,
2013-12-07 05:45:00,36.9,35.1,30.26,NW,321,4.9,6.9,93,0.00,,,0.17,meteobridge,2013-12-07 10:45:00,
2013-12-07 05:50:00,36.9,35.1,30.26,North,350,0.9,6.9,93,0.00,,,0.17,meteobridge,2013-12-07 10:50:00,
2013-12-07 05:55:00,36.9,35.1,30.26,NNE,24,0.0,6.0,93,0.00,,,0.17,meteobridge,2013-12-07 10:55:00,
2013-12-07 06:01:00,36.9,35.1,30.27,North,5,4.0,6.9,93,0.00,,,0.17,meteobridge,2013-12-07 11:01:00,
2013-12-07 06:06:00,37.0,35.2,30.27,NNE,27,6.9,6.9,93,0.00,,,0.17,meteobridge,2013-12-07 11:06:00,
2013-12-07 06:11:00,36.9,35.1,30.27,North,349,4.0,8.1,93,0.00,,,0.17,meteobridge,2013-12-07 11:11:00,
2013-12-07 06:16:00,37.0,35.2,30.28,NNW,340,8.1,11.0,93,0.00,,,0.17,meteobridge,2013-12-07 11:16:00,
2013-12-07 06:21:00,37.0,35.2,30.28,NNE,22,2.9,6.0,93,0.00,,,0.17,meteobridge,2013-12-07 11:21:00,
2013-12-07 06:26:00,37.0,35.2,30.28,NNW,330,2.0,8.9,93,0.00,,,0.17,meteobridge,2013-12-07 11:26:00,
2013-12-07 06:31:00,37.0,35.2,30.28,NNE,19,0.9,4.0,93,0.00,,,0.17,meteobridge,2013-12-07 11:31:00,
2013-12-07 06:36:00,37.0,34.9,30.28,North,355,2.0,6.0,92,0.00,,,0.17,meteobridge,2013-12-07 11:36:00,
2013-12-07 06:41:00,36.9,34.7,30.28,North,350,4.9,4.9,92,0.00,,,0.17,meteobridge,2013-12-07 11:41:00,
2013-12-07 06:46:00,37.0,34.9,30.28,NNW,328,4.0,6.9,92,0.00,,,0.17,meteobridge,2013-12-07 11:46:00,
2013-12-07 06:51:00,36.9,34.7,30.29,NW,322,2.0,4.0,92,0.00,,,0.17,meteobridge,2013-12-07 11:51:00,
2013-12-07 06:56:00,37.0,34.9,30.29,NNW,335,2.9,6.0,92,0.00,,,0.17,meteobridge,2013-12-07 11:56:00,
2013-12-07 07:01:00,37.0,34.9,30.29,NW,325,2.9,8.1,92,0.00,,,0.17,meteobridge,2013-12-07 12:01:00,
2013-12-07 07:07:00,37.0,34.9,30.29,NNW,344,2.9,4.0,92,0.00,,,0.17,meteobridge,2013-12-07 12:07:00,
2013-12-07 07:12:00,37.0,34.9,30.29,WNW,298,2.0,4.9,92,0.00,,,0.17,meteobridge,2013-12-07 12:12:00,
2013-12-07 07:17:00,37.0,34.9,30.29,NNW,329,2.9,2.9,92,0.00,,,0.17,meteobridge,2013-12-07 12:17:00,
2013-12-07 07:22:00,37.0,35.2,30.29,North,355,2.9,4.0,93,0.00,,,0.17,meteobridge,2013-12-07 12:22:00,
2013-12-07 07:27:00,37.0,35.2,30.30,NNW,345,4.0,4.0,93,0.00,,,0.17,meteobridge,2013-12-07 12:27:00,
2013-12-07 07:32:00,37.2,35.4,30.30,NNW,327,2.9,4.0,93,0.00,,,0.17,meteobridge,2013-12-07 12:32:00,
2013-12-07 07:37:00,37.2,35.4,30.30,NNW,343,0.0,4.0,93,0.00,,,0.17,meteobridge,2013-12-07 12:37:00,
2013-12-07 07:42:00,37.0,34.9,30.30,NNW,327,4.0,4.9,92,0.00,,,0.17,meteobridge,2013-12-07 12:42:00,
2013-12-07 07:47:00,37.0,34.9,30.31,North,5,4.0,4.0,92,0.00,,,0.17,meteobridge,2013-12-07 12:47:00,
2013-12-07 07:52:00,37.0,34.9,30.31,WNW,303,2.9,6.0,92,0.00,,,0.17,meteobridge,2013-12-07 12:52:00,
2013-12-07 07:57:00,37.0,34.9,30.31,NNW,327,4.0,4.0,92,0.00,,,0.17,meteobridge,2013-12-07 12:57:00,
2013-12-07 08:02:00,37.0,34.7,30.32,NW,323,2.0,6.9,91,0.00,,,0.17,meteobridge,2013-12-07 13:02:00,
2013-12-07 08:07:00,37.0,34.7,30.32,NW,325,4.9,6.9,91,0.00,,,0.17,meteobridge,2013-12-07 13:07:00,
2013-12-07 08:12:00,37.2,34.5,30.32,NW,316,0.0,2.9,90,0.00,,,0.17,meteobridge,2013-12-07 13:12:00,
2013-12-07 08:17:00,37.2,34.5,30.33,NNW,336,0.9,4.0,90,0.00,,,0.17,meteobridge,2013-12-07 13:17:00,
2013-12-07 08:22:00,37.4,34.7,30.33,North,350,2.0,4.9,90,0.00,,,0.17,meteobridge,2013-12-07 13:22:00,
2013-12-07 08:27:00,37.4,34.7,30.33,WNW,298,0.9,4.9,90,0.00,,,0.17,meteobridge,2013-12-07 13:27:00,
2013-12-07 08:32:00,37.6,34.9,30.33,NW,304,2.0,4.9,90,0.00,,,0.17,meteobridge,2013-12-07 13:32:00,
2013-12-07 08:37:00,37.6,34.9,30.33,NNW,334,2.9,4.9,90,0.00,,,0.17,meteobridge,2013-12-07 13:37:00,
2013-12-07 08:43:00,37.8,35.1,30.33,NNW,333,2.0,6.0,90,0.00,,,0.17,meteobridge,2013-12-07 13:43:00,
2013-12-07 08:48:00,37.8,35.1,30.33,NW,326,2.9,4.0,90,0.00,,,0.17,meteobridge,2013-12-07 13:48:00,
2013-12-07 08:53:00,37.9,35.2,30.34,NNW,327,4.0,8.1,90,0.00,,,0.17,meteobridge,2013-12-07 13:53:00,
2013-12-07 08:58:00,37.9,35.1,30.34,NW,321,2.9,6.9,89,0.00,,,0.17,meteobridge,2013-12-07 13:58:00,
2013-12-07 09:03:00,38.1,35.2,30.35,NNW,332,2.9,2.9,89,0.00,,,0.17,meteobridge,2013-12-07 14:03:00,
2013-12-07 09:08:00,38.3,35.1,30.35,North,351,2.9,8.1,88,0.00,,,0.17,meteobridge,2013-12-07 14:08:00,
2013-12-07 09:13:00,38.3,34.5,30.35,WNW,300,4.0,4.0,86,0.00,,,0.17,meteobridge,2013-12-07 14:13:00,
2013-12-07 09:18:00,38.1,34.0,30.35,North,350,6.0,11.0,85,0.00,,,0.17,meteobridge,2013-12-07 14:18:00,
2013-12-07 09:23:00,38.1,34.0,30.35,NW,304,4.9,8.9,85,0.00,,,0.17,meteobridge,2013-12-07 14:23:00,
2013-12-07 09:28:00,38.1,34.0,30.35,NW,325,0.9,6.9,85,0.00,,,0.17,meteobridge,2013-12-07 14:28:00,
2013-12-07 09:33:00,38.1,34.0,30.35,North,9,4.0,8.9,85,0.00,,,0.17,meteobridge,2013-12-07 14:33:00,
2013-12-07 09:38:00,38.3,33.6,30.36,NNE,21,4.0,13.0,83,0.00,,,0.17,meteobridge,2013-12-07 14:38:00,
2013-12-07 09:43:00,38.5,33.8,30.36,NNE,13,2.9,8.1,83,0.00,,,0.17,meteobridge,2013-12-07 14:43:00,
2013-12-07 09:48:00,38.5,33.4,30.36,NW,314,2.9,17.0,82,0.00,,,0.17,meteobridge,2013-12-07 14:48:00,
2013-12-07 09:53:00,38.5,33.4,30.36,NW,320,2.9,11.0,82,0.00,,,0.17,meteobridge,2013-12-07 14:53:00,
2013-12-07 09:58:00,38.7,33.6,30.36,North,0,8.1,10.1,82,0.00,,,0.17,meteobridge,2013-12-07 14:58:00,
2013-12-07 10:03:00,38.7,33.6,30.36,North,349,6.9,11.0,82,0.00,,,0.17,meteobridge,2013-12-07 15:03:00,
2013-12-07 10:08:00,38.7,33.1,30.36,North,11,4.9,11.0,80,0.00,,,0.17,meteobridge,2013-12-07 15:08:00,
2013-12-07 10:14:00,38.7,33.3,30.36,NNE,19,0.9,6.9,81,0.00,,,0.17,meteobridge,2013-12-07 15:14:00,
2013-12-07 10:19:00,38.8,33.8,30.36,North,355,4.0,8.1,82,0.00,,,0.17,meteobridge,2013-12-07 15:19:00,
2013-12-07 10:24:00,39.2,33.8,30.37,NW,323,4.9,10.1,81,0.00,,,0.17,meteobridge,2013-12-07 15:24:00,
2013-12-07 10:29:00,39.4,33.4,30.36,North,5,4.0,11.0,79,0.00,,,0.17,meteobridge,2013-12-07 15:29:00,
2013-12-07 10:34:00,39.4,33.4,30.36,NW,319,4.0,8.1,79,0.00,,,0.17,meteobridge,2013-12-07 15:34:00,
2013-12-07 10:39:00,39.6,33.6,30.36,NNE,28,2.0,13.0,79,0.00,,,0.17,meteobridge,2013-12-07 15:39:00,
2013-12-07 10:44:00,40.3,34.0,30.36,NW,306,4.9,11.0,78,0.00,,,0.17,meteobridge,2013-12-07 15:44:00,
2013-12-07 10:49:00,40.6,33.6,30.36,North,355,8.1,10.1,76,0.00,,,0.17,meteobridge,2013-12-07 15:49:00,
2013-12-07 10:54:00,40.8,33.8,30.36,West,271,0.9,4.0,76,0.00,,,0.17,meteobridge,2013-12-07 15:54:00,
2013-12-07 10:59:00,41.4,34.0,30.36,WNW,298,4.0,10.1,75,0.00,,,0.17,meteobridge,2013-12-07 15:59:00,
2013-12-07 11:04:00,41.7,33.6,30.35,North,355,2.9,11.0,73,0.00,,,0.17,meteobridge,2013-12-07 16:04:00,
2013-12-07 11:09:00,42.3,33.8,30.35,NW,319,2.9,10.1,72,0.00,,,0.17,meteobridge,2013-12-07 16:09:00,
2013-12-07 11:14:00,42.1,33.4,30.35,West,269,4.9,15.0,71,0.00,,,0.17,meteobridge,2013-12-07 16:14:00,
2013-12-07 11:19:00,42.1,33.8,30.36,NNW,329,4.0,8.1,72,0.00,,,0.17,meteobridge,2013-12-07 16:19:00,
2013-12-07 11:24:00,42.1,33.1,30.35,NNW,329,2.9,13.0,70,0.00,,,0.17,meteobridge,2013-12-07 16:24:00,
2013-12-07 11:29:00,41.9,32.9,30.36,NW,305,8.9,11.0,70,0.00,,,0.17,meteobridge,2013-12-07 16:29:00,
2013-12-07 11:34:00,41.7,33.1,30.36,NNW,343,2.9,4.0,71,0.00,,,0.17,meteobridge,2013-12-07 16:34:00,
2013-12-07 11:39:00,42.1,33.4,30.36,NNW,328,6.0,8.9,71,0.00,,,0.17,meteobridge,2013-12-07 16:39:00,
2013-12-07 11:44:00,42.1,32.7,30.36,NNE,17,2.0,8.1,69,0.00,,,0.17,meteobridge,2013-12-07 16:44:00,
2013-12-07 11:49:00,42.1,32.7,30.36,WNW,298,4.9,12.1,69,0.00,,,0.17,meteobridge,2013-12-07 16:49:00,
2013-12-07 11:54:00,42.1,33.1,30.36,North,350,4.0,8.9,70,0.00,,,0.17,meteobridge,2013-12-07 16:54:00,
2013-12-07 11:59:00,42.1,32.7,30.36,NNW,331,2.9,10.1,69,0.00,,,0.17,meteobridge,2013-12-07 16:59:00,
2013-12-07 12:04:00,42.1,32.7,30.36,NNW,342,4.0,12.1,69,0.00,,,0.17,meteobridge,2013-12-07 17:04:00,
2013-12-07 12:09:00,42.1,32.4,30.36,West,269,6.0,11.0,68,0.00,,,0.17,meteobridge,2013-12-07 17:09:00,
2013-12-07 12:14:00,41.9,32.2,30.35,North,355,2.0,6.9,68,0.00,,,0.17,meteobridge,2013-12-07 17:14:00,
2013-12-07 12:19:00,42.1,32.7,30.35,NNW,336,6.0,8.9,69,0.00,,,0.17,meteobridge,2013-12-07 17:19:00,
2013-12-07 12:24:00,42.3,32.9,30.36,North,355,8.9,8.9,69,0.00,,,0.17,meteobridge,2013-12-07 17:24:00,
2013-12-07 12:30:00,42.3,32.5,30.36,NW,325,2.0,4.9,68,0.00,,,0.17,meteobridge,2013-12-07 17:30:00,
2013-12-07 12:35:00,42.1,31.1,30.35,North,355,8.9,12.1,65,0.00,,,0.17,meteobridge,2013-12-07 17:35:00,
2013-12-07 12:40:00,41.5,31.1,30.36,WNW,282,4.9,11.0,66,0.00,,,0.17,meteobridge,2013-12-07 17:40:00,
2013-12-07 12:45:00,41.5,31.5,30.36,North,350,4.0,10.1,67,0.00,,,0.17,meteobridge,2013-12-07 17:45:00,
2013-12-07 12:50:00,41.7,31.6,30.36,NW,306,10.1,13.0,67,0.00,,,0.17,meteobridge,2013-12-07 17:50:00,
2013-12-07 12:55:00,41.7,30.7,30.36,NW,323,10.1,13.0,65,0.00,,,0.17,meteobridge,2013-12-07 17:55:00,
2013-12-07 13:00:00,42.1,31.1,30.36,West,278,2.9,10.1,65,0.00,,,0.17,meteobridge,2013-12-07 18:00:00,
2013-12-07 13:05:00,42.3,30.9,30.36,NW,313,8.1,10.1,64,0.00,,,0.17,meteobridge,2013-12-07 18:05:00,
2013-12-07 13:10:00,42.4,30.7,30.36,WNW,294,8.9,16.1,63,0.00,,,0.17,meteobridge,2013-12-07 18:10:00,
2013-12-07 13:15:00,42.3,29.8,30.37,West,277,19.9,19.9,61,0.00,,,0.17,meteobridge,2013-12-07 18:15:00,
2013-12-07 13:20:00,42.1,30.0,30.37,NNW,348,4.9,10.1,62,0.00,,,0.17,meteobridge,2013-12-07 18:20:00,
2013-12-07 13:25:00,42.3,30.6,30.37,NW,325,2.9,6.9,63,0.00,,,0.17,meteobridge,2013-12-07 18:25:00,
2013-12-07 13:30:00,42.3,29.8,30.37,NNW,340,6.9,11.0,61,0.00,,,0.17,meteobridge,2013-12-07 18:30:00,
2013-12-07 13:35:00,42.4,29.5,30.37,NW,318,4.9,15.0,60,0.00,,,0.17,meteobridge,2013-12-07 18:35:00,
2013-12-07 13:40:00,42.6,29.3,30.36,NNW,331,8.1,15.0,59,0.00,,,0.17,meteobridge,2013-12-07 18:40:00,
2013-12-07 13:45:00,42.4,29.1,30.36,NNW,331,6.0,11.0,59,0.00,,,0.17,meteobridge,2013-12-07 18:45:00,
2013-12-07 13:50:00,42.6,29.7,30.37,NNW,329,8.9,11.0,60,0.00,,,0.17,meteobridge,2013-12-07 18:50:00,
2013-12-07 13:55:00,43.0,30.0,30.37,NNW,342,2.0,8.9,60,0.00,,,0.17,meteobridge,2013-12-07 18:55:00,
2013-12-07 14:00:00,42.6,29.7,30.37,NW,304,8.1,12.1,60,0.00,,,0.17,meteobridge,2013-12-07 19:00:00,
2013-12-07 14:05:00,42.6,30.2,30.37,NW,323,4.0,10.1,61,0.00,,,0.17,meteobridge,2013-12-07 19:05:00,
2013-12-07 14:10:00,42.6,29.3,30.37,NNW,338,2.9,11.0,59,0.00,,,0.17,meteobridge,2013-12-07 19:10:00,
2013-12-07 14:16:00,42.4,29.1,30.37,NNE,21,2.9,12.1,59,0.00,,,0.17,meteobridge,2013-12-07 19:16:00,
2013-12-07 14:21:00,42.4,29.1,30.37,NW,311,2.9,14.1,59,0.00,,,0.17,meteobridge,2013-12-07 19:21:00,
2013-12-07 14:26:00,42.4,29.1,30.37,NW,318,4.0,11.0,59,0.00,,,0.17,meteobridge,2013-12-07 19:26:00,
2013-12-07 14:31:00,42.3,28.9,30.37,WNW,296,6.9,14.1,59,0.00,,,0.17,meteobridge,2013-12-07 19:31:00,
2013-12-07 14:36:00,42.3,28.9,30.37,NNW,332,4.9,11.0,59,0.00,,,0.17,meteobridge,2013-12-07 19:36:00,
2013-12-07 14:41:00,42.4,28.8,30.37,West,277,8.1,11.0,58,0.00,,,0.17,meteobridge,2013-12-07 19:41:00,
2013-12-07 14:46:00,42.6,29.3,30.37,NNW,331,4.0,14.1,59,0.00,,,0.17,meteobridge,2013-12-07 19:46:00,
2013-12-07 14:51:00,42.6,28.9,30.37,NW,323,6.0,12.1,58,0.00,,,0.17,meteobridge,2013-12-07 19:51:00,
2013-12-07 14:56:00,42.4,29.1,30.38,NW,309,6.0,10.1,59,0.00,,,0.17,meteobridge,2013-12-07 19:56:00,
2013-12-07 15:01:00,42.6,28.9,30.38,WNW,302,12.1,12.1,58,0.00,,,0.17,meteobridge,2013-12-07 20:01:00,
2013-12-07 15:06:00,42.4,28.8,30.38,West,280,6.9,6.9,58,0.00,,,0.17,meteobridge,2013-12-07 20:06:00,
2013-12-07 15:11:00,42.6,28.9,30.39,WNW,297,4.9,11.0,58,0.00,,,0.17,meteobridge,2013-12-07 20:11:00,
2013-12-07 15:16:00,42.4,28.8,30.39,West,281,6.0,12.1,58,0.00,,,0.17,meteobridge,2013-12-07 20:16:00,
2013-12-07 15:21:00,42.1,28.4,30.39,NNW,348,4.0,10.1,58,0.00,,,0.17,meteobridge,2013-12-07 20:21:00,
2013-12-07 15:26:00,41.7,28.4,30.40,WNW,290,2.0,8.9,59,0.00,,,0.17,meteobridge,2013-12-07 20:26:00,
2013-12-07 15:31:00,41.4,28.0,30.40,NW,322,2.9,8.1,59,0.00,,,0.17,meteobridge,2013-12-07 20:31:00,
2013-12-07 15:36:00,41.2,28.4,30.39,NNW,327,0.9,4.0,60,0.00,,,0.17,meteobridge,2013-12-07 20:36:00,
2013-12-07 15:41:00,40.6,27.9,30.40,NNW,327,0.9,4.9,60,0.00,,,0.17,meteobridge,2013-12-07 20:41:00,
2013-12-07 15:46:00,40.3,27.9,30.40,NW,322,2.9,8.1,61,0.00,,,0.17,meteobridge,2013-12-07 20:46:00,
2013-12-07 15:51:00,39.7,27.3,30.40,NW,309,2.9,6.0,61,0.00,,,0.17,meteobridge,2013-12-07 20:51:00,
2013-12-07 15:56:00,39.6,27.1,30.40,WNW,302,4.9,6.0,61,0.00,,,0.17,meteobridge,2013-12-07 20:56:00,
2013-12-07 16:01:00,39.0,26.8,30.40,NW,313,2.9,8.9,61,0.00,,,0.17,meteobridge,2013-12-07 21:01:00,
2013-12-07 16:06:00,38.8,26.6,30.41,NW,323,4.9,8.9,61,0.00,,,0.17,meteobridge,2013-12-07 21:06:00,
2013-12-07 16:12:00,38.5,26.6,30.41,NW,305,0.9,8.1,62,0.00,,,0.17,meteobridge,2013-12-07 21:12:00,
2013-12-07 16:17:00,38.3,26.4,30.41,NNW,327,2.0,4.9,62,0.00,,,0.17,meteobridge,2013-12-07 21:17:00,
2013-12-07 16:22:00,38.1,26.6,30.41,WNW,301,0.9,2.9,63,0.00,,,0.17,meteobridge,2013-12-07 21:22:00,
2013-12-07 16:27:00,37.8,26.2,30.42,WNW,285,6.0,8.9,63,0.00,,,0.17,meteobridge,2013-12-07 21:27:00,
2013-12-07 16:32:00,37.6,26.1,30.42,NW,306,2.0,8.1,63,0.00,,,0.17,meteobridge,2013-12-07 21:32:00,
2013-12-07 16:37:00,37.4,26.4,30.42,WNW,300,4.0,4.9,64,0.00,,,0.17,meteobridge,2013-12-07 21:37:00,
2013-12-07 16:42:00,37.2,26.2,30.42,WNW,297,0.9,2.0,64,0.00,,,0.17,meteobridge,2013-12-07 21:42:00,
2013-12-07 16:47:00,37.0,26.1,30.42,WNW,299,2.0,4.0,64,0.00,,,0.17,meteobridge,2013-12-07 21:47:00,
2013-12-07 16:52:00,36.9,26.2,30.43,NW,304,2.0,8.1,65,0.00,,,0.17,meteobridge,2013-12-07 21:52:00,
2013-12-07 16:57:00,36.7,26.1,30.43,West,279,6.0,8.1,65,0.00,,,0.17,meteobridge,2013-12-07 21:57:00,
2013-12-07 17:02:00,36.7,26.1,30.43,WNW,296,2.9,6.9,65,0.00,,,0.17,meteobridge,2013-12-07 22:02:00,
2013-12-07 17:07:00,36.7,25.7,30.43,WNW,290,2.9,8.9,64,0.00,,,0.17,meteobridge,2013-12-07 22:07:00,
2013-12-07 17:12:00,36.5,25.5,30.44,West,279,4.0,8.1,64,0.00,,,0.17,meteobridge,2013-12-07 22:12:00,
2013-12-07 17:17:00,36.5,25.5,30.44,WNW,300,2.9,6.9,64,0.00,,,0.17,meteobridge,2013-12-07 22:17:00,
2013-12-07 17:22:00,36.3,25.7,30.44,NW,304,4.9,8.1,65,0.00,,,0.17,meteobridge,2013-12-07 22:22:00,
2013-12-07 17:27:00,36.1,25.5,30.44,NW,308,4.0,8.1,65,0.00,,,0.17,meteobridge,2013-12-07 22:27:00,
2013-12-07 17:32:00,36.1,25.5,30.44,WNW,298,6.0,8.1,65,0.00,,,0.17,meteobridge,2013-12-07 22:32:00,
2013-12-07 17:37:00,36.1,25.5,30.44,WNW,302,0.9,10.1,65,0.00,,,0.17,meteobridge,2013-12-07 22:37:00,
2013-12-07 17:42:00,36.0,25.7,30.45,WNW,290,4.9,11.0,66,0.00,,,0.17,meteobridge,2013-12-07 22:42:00,
2013-12-07 17:47:00,36.0,25.7,30.45,NW,306,2.9,6.9,66,0.00,,,0.17,meteobridge,2013-12-07 22:47:00,
2013-12-07 17:52:00,36.0,25.7,30.45,WNW,298,6.0,6.0,66,0.00,,,0.17,meteobridge,2013-12-07 22:52:00,
2013-12-07 17:57:00,35.8,25.5,30.46,NW,313,2.0,6.0,66,0.00,,,0.17,meteobridge,2013-12-07 22:57:00,
2013-12-07 18:02:00,35.6,25.7,30.46,NW,325,2.9,2.9,67,0.00,,,0.17,meteobridge,2013-12-07 23:02:00,
2013-12-07 18:08:00,35.4,25.5,30.46,WNW,300,2.0,6.9,67,0.00,,,0.17,meteobridge,2013-12-07 23:08:00,
2013-12-07 18:13:00,35.2,25.7,30.46,NNW,335,2.0,6.0,68,0.00,,,0.17,meteobridge,2013-12-07 23:13:00,
2013-12-07 18:18:00,35.2,25.7,30.46,NW,311,4.0,6.0,68,0.00,,,0.17,meteobridge,2013-12-07 23:18:00,
2013-12-07 18:23:00,35.1,25.5,30.47,NW,316,4.0,8.9,68,0.00,,,0.17,meteobridge,2013-12-07 23:23:00,
2013-12-07 18:28:00,35.1,25.5,30.47,WNW,300,2.9,4.9,68,0.00,,,0.17,meteobridge,2013-12-07 23:28:00,
2013-12-07 18:33:00,35.1,25.5,30.47,WNW,288,2.0,6.0,68,0.00,,,0.17,meteobridge,2013-12-07 23:33:00,
2013-12-07 18:38:00,34.9,25.7,30.47,NW,310,6.9,6.9,69,0.00,,,0.17,meteobridge,2013-12-07 23:38:00,
2013-12-07 18:43:00,34.9,25.7,30.47,WNW,292,6.0,6.9,69,0.00,,,0.17,meteobridge,2013-12-07 23:43:00,
2013-12-07 18:48:00,34.9,25.7,30.48,NW,310,0.9,2.9,69,0.00,,,0.17,meteobridge,2013-12-07 23:48:00,
2013-12-07 18:53:00,34.7,25.5,30.48,WNW,294,4.0,8.1,69,0.00,,,0.17,meteobridge,2013-12-07 23:53:00,
2013-12-07 18:58:00,34.5,25.7,30.48,NW,305,4.9,4.9,70,0.00,,,0.17,meteobridge,2013-12-07 23:58:00,
2013-12-07 19:03:00,34.3,25.5,30.49,WNW,296,0.9,4.0,70,0.00,,,0.17,meteobridge,2013-12-08 00:03:00,
2013-12-07 19:08:00,34.3,25.5,30.49,WNW,296,0.9,2.9,70,0.00,,,0.17,meteobridge,2013-12-08 00:08:00,
2013-12-07 19:13:00,34.2,25.3,30.49,WNW,296,0.0,2.9,70,0.00,,,0.17,meteobridge,2013-12-08 00:13:00,
2013-12-07 19:18:00,34.0,25.5,30.49,WNW,296,0.9,0.9,71,0.00,,,0.17,meteobridge,2013-12-08 00:18:00,
2013-12-07 19:23:00,34.0,25.5,30.49,WNW,296,2.0,2.9,71,0.00,,,0.17,meteobridge,2013-12-08 00:23:00,
2013-12-07 19:29:00,33.8,25.7,30.50,WNW,296,0.9,0.9,72,0.00,,,0.17,meteobridge,2013-12-08 00:29:00,
2013-12-07 19:34:00,33.6,25.5,30.51,WNW,296,0.0,2.9,72,0.00,,,0.17,meteobridge,2013-12-08 00:34:00,
2013-12-07 19:39:00,33.4,25.7,30.51,WNW,292,2.9,6.9,73,0.00,,,0.17,meteobridge,2013-12-08 00:39:00,
2013-12-07 19:44:00,33.3,25.5,30.51,WNW,292,0.9,4.0,73,0.00,,,0.17,meteobridge,2013-12-08 00:44:00,
2013-12-07 19:49:00,33.3,25.5,30.51,NNW,327,0.9,4.9,73,0.00,,,0.17,meteobridge,2013-12-08 00:49:00,
2013-12-07 19:54:00,33.3,25.5,30.51,NW,324,2.9,6.0,73,0.00,,,0.17,meteobridge,2013-12-08 00:54:00,
2013-12-07 19:59:00,33.1,25.3,30.51,NW,321,2.9,4.0,73,0.00,,,0.17,meteobridge,2013-12-08 00:59:00,
2013-12-07 20:04:00,33.1,25.3,30.51,WNW,290,2.0,6.9,73,0.00,,,0.17,meteobridge,2013-12-08 01:04:00,
2013-12-07 20:09:00,33.1,25.3,30.52,WNW,297,4.9,6.9,73,0.00,,,0.17,meteobridge,2013-12-08 01:09:00,
2013-12-07 20:14:00,33.1,25.3,30.52,WNW,298,0.9,4.9,73,0.00,,,0.17,meteobridge,2013-12-08 01:14:00,
2013-12-07 20:19:00,33.1,25.7,30.53,WNW,296,2.0,4.0,74,0.00,,,0.17,meteobridge,2013-12-08 01:19:00,
2013-12-07 20:24:00,32.9,25.5,30.53,NW,306,2.0,2.0,74,0.00,,,0.17,meteobridge,2013-12-08 01:24:00,
2013-12-07 20:29:00,32.7,25.3,30.53,WNW,297,0.9,2.9,74,0.00,,,0.17,meteobridge,2013-12-08 01:29:00,
2013-12-07 20:34:00,32.7,25.3,30.53,WNW,297,2.0,2.9,74,0.00,,,0.17,meteobridge,2013-12-08 01:34:00,
2013-12-07 20:39:00,32.5,25.2,30.53,WNW,297,0.0,2.9,74,0.00,,,0.17,meteobridge,2013-12-08 01:39:00,
2013-12-07 20:44:00,32.4,25.3,30.53,NW,305,2.9,4.0,75,0.00,,,0.17,meteobridge,2013-12-08 01:44:00,
2013-12-07 20:50:00,32.4,25.3,30.53,NW,304,2.9,2.9,75,0.00,,,0.17,meteobridge,2013-12-08 01:50:00,
2013-12-07 20:55:00,32.2,25.2,30.53,NW,304,0.0,2.9,75,0.00,,,0.17,meteobridge,2013-12-08 01:55:00,
2013-12-07 21:00:00,32.0,25.0,30.53,NW,304,2.0,2.0,75,0.00,,,0.17,meteobridge,2013-12-08 02:00:00,
2013-12-07 21:05:00,31.8,24.8,30.53,NW,304,0.9,2.9,75,0.00,,,0.17,meteobridge,2013-12-08 02:05:00,
2013-12-07 21:10:00,31.6,25.0,30.53,NW,304,0.0,2.9,76,0.00,,,0.17,meteobridge,2013-12-08 02:10:00,
2013-12-07 21:16:00,31.6,25.0,30.53,NW,304,0.9,2.0,76,0.00,,,0.17,meteobridge,2013-12-08 02:16:00,
2013-12-07 21:21:00,31.6,25.0,30.53,NW,304,2.0,2.0,76,0.00,,,0.17,meteobridge,2013-12-08 02:21:00,
2013-12-07 21:26:00,31.5,24.8,30.53,NW,304,0.9,0.9,76,0.00,,,0.17,meteobridge,2013-12-08 02:26:00,
2013-12-07 21:31:00,31.5,24.8,30.53,NW,304,2.0,2.9,76,0.00,,,0.17,meteobridge,2013-12-08 02:31:00,
2013-12-07 21:36:00,31.3,24.6,30.53,NW,305,2.0,4.0,76,0.00,,,0.17,meteobridge,2013-12-08 02:36:00,
2013-12-07 21:41:00,31.3,24.6,30.53,NW,312,2.9,6.0,76,0.00,,,0.17,meteobridge,2013-12-08 02:41:00,
2013-12-07 21:46:00,31.1,24.4,30.54,NW,313,2.0,4.9,76,0.00,,,0.17,meteobridge,2013-12-08 02:46:00,
2013-12-07 21:51:00,31.1,24.4,30.54,NW,313,0.9,2.9,76,0.00,,,0.17,meteobridge,2013-12-08 02:51:00,
2013-12-07 21:56:00,31.1,24.4,30.53,NW,313,2.0,2.9,76,0.00,,,0.17,meteobridge,2013-12-08 02:56:00,
2013-12-07 22:01:00,30.9,24.3,30.54,NW,313,0.0,2.0,76,0.00,,,0.17,meteobridge,2013-12-08 03:01:00,
2013-12-07 22:07:00,31.1,24.1,30.54,NW,313,0.9,2.9,75,0.00,,,0.17,meteobridge,2013-12-08 03:07:00,
2013-12-07 22:12:00,31.1,24.1,30.54,NW,313,0.0,2.9,75,0.00,,,0.17,meteobridge,2013-12-08 03:12:00,
2013-12-07 22:17:00,30.9,23.9,30.54,NW,313,0.9,2.9,75,0.00,,,0.17,meteobridge,2013-12-08 03:17:00,
2013-12-07 22:22:00,30.7,23.7,30.55,NW,313,0.9,2.0,75,0.00,,,0.17,meteobridge,2013-12-08 03:22:00,
2013-12-07 22:27:00,30.7,24.1,30.55,NW,314,2.9,4.9,76,0.00,,,0.17,meteobridge,2013-12-08 03:27:00,
2013-12-07 22:32:00,30.7,23.7,30.55,NW,325,2.0,2.0,75,0.00,,,0.17,meteobridge,2013-12-08 03:32:00,
2013-12-07 22:37:00,30.9,23.5,30.55,North,355,2.0,2.9,74,0.00,,,0.17,meteobridge,2013-12-08 03:37:00,
2013-12-07 22:42:00,31.1,23.5,30.55,WNW,298,2.0,2.9,73,0.00,,,0.17,meteobridge,2013-12-08 03:42:00,
2013-12-07 22:47:00,31.3,23.0,30.55,North,0,4.0,6.9,71,0.00,,,0.17,meteobridge,2013-12-08 03:47:00,
2013-12-07 22:52:00,31.5,22.8,30.55,North,5,4.0,4.0,70,0.00,,,0.17,meteobridge,2013-12-08 03:52:00,
2013-12-07 22:58:00,31.8,22.8,30.55,NNW,346,8.1,10.1,69,0.00,,,0.17,meteobridge,2013-12-08 03:58:00,
2013-12-07 23:03:00,32.0,23.0,30.55,NW,321,4.9,4.9,69,0.00,,,0.17,meteobridge,2013-12-08 04:03:00,
2013-12-07 23:08:00,32.2,22.8,30.56,North,0,8.9,10.1,68,0.00,,,0.17,meteobridge,2013-12-08 04:08:00,
2013-12-07 23:13:00,32.4,22.6,30.56,NNW,327,2.0,6.9,67,0.00,,,0.17,meteobridge,2013-12-08 04:13:00,
2013-12-07 23:18:00,32.4,22.3,30.56,NNW,333,2.9,6.9,66,0.00,,,0.17,meteobridge,2013-12-08 04:18:00,
2013-12-07 23:23:00,32.4,21.9,30.56,North,355,2.0,8.1,65,0.00,,,0.17,meteobridge,2013-12-08 04:23:00,
2013-12-07 23:28:00,32.4,21.9,30.56,North,5,2.0,4.0,65,0.00,,,0.17,meteobridge,2013-12-08 04:28:00,
2013-12-07 23:33:00,32.5,22.1,30.56,NNW,330,4.0,4.9,65,0.00,,,0.17,meteobridge,2013-12-08 04:33:00,
2013-12-07 23:38:00,32.4,21.9,30.56,NNE,24,0.9,6.9,65,0.00,,,0.17,meteobridge,2013-12-08 04:38:00,
2013-12-07 23:43:00,32.4,21.9,30.56,NNW,335,4.9,8.1,65,0.00,,,0.17,meteobridge,2013-12-08 04:43:00,
2013-12-07 23:48:00,32.4,21.6,30.56,North,0,10.1,10.1,64,0.00,,,0.17,meteobridge,2013-12-08 04:48:00,
2013-12-07 23:53:00,32.4,21.2,30.56,NNE,13,4.0,6.9,63,0.00,,,0.17,meteobridge,2013-12-08 04:53:00,
2013-12-07 23:58:00,32.4,21.2,30.56,North,5,2.0,4.9,63,0.00,,,0.17,meteobridge,2013-12-08 04:58:00,